User: anonymous   Login
Location: *
(50.3440°N, 18.6237°E)
Time: 07:14:50
(UTC+00:00)
Language:

Helios 1A Rocket - Orbit

View from above orbital plane
View from above orbital plane
View from above satellite
View from above satellite

Ground track
Ground track

The orbit data is extracted from the following two-line orbital elements,

1 23608U 95033D   21058.85440919  .00000284  00000-0  29971-4 0  9991
2 23608  98.3071  92.5356 0017814 114.2514 246.0570 14.97585152389661
Epoch (UTC): 27 February 2021 20:30:20
Eccentricity: 0.0017814
inclination: 98.3071°
perigee height: 562 km
apogee height: 587 km
right ascension of ascending node: 92.5356°
argument of perigee: 114.2514°
revolutions per day: 14.97585152
mean anomaly at epoch: 246.0570°
orbit number at epoch: 38966

The dashed part of the orbit path shows where the satellite is in the earth's shadow,  

DLR